This demonstration page uses our WeatherBlox Daily Observations layout. Learn more.

Left ArrowRight Arrow

39.01783, -85.05884

Hourly Observations for July 5, 2020

Temp ( °F °C ) Dew Point ( °F °C ) Humidity (%) Winds ( mph kmh ) Pressure ( in mb ) Visibility ( mi km ) Precip ( " mm )
12:52 am 00:52 Mostly Clear 79 26.1 65 18.3 62 62 NE 3 6 29.93 1014 10 16 0.00 0.00
1:52 am 01:52 Clear 79 26.1 65 18.3 62 62 NE 6 9 29.93 1014 10 16 0.00 0.00
2:52 am 02:52 Clear 78 25.6 65 18.3 64 64 NE 9 15 29.93 1014 10 16 0.00 0.00
3:52 am 03:52 Clear 73 22.8 65 18.3 76 76 Calm 29.92 1013 10 16 0.00 0.00
4:52 am 04:52 Clear 76 24.4 65 18.3 69 69 E 3 6 29.92 1013 10 16 0.00 0.00
5:52 am 05:52 Clear 75 23.9 65 18.3 71 71 Calm 29.93 1014 10 16 0.00 0.00
6:52 am 06:52 Hazy 73 22.8 66 18.9 79 79 NNE 5 7 29.94 1014 5 8 0.00 0.00
7:52 am 07:52 Sunny 77 25 67 19.4 71 71 ENE 3 6 29.95 1014 7 11 0.00 0.00
8:52 am 08:52 Sunny 79 26.1 68 20 69 69 E 6 9 29.96 1015 7 11 0.00 0.00
9:52 am 09:52 Mostly Sunny 83 28.3 68 20 61 61 E 3 6 29.97 1015 7 11 0.00 0.00
10:52 am 10:52 Mostly Sunny 88 31.1 66 18.9 48 48 VRB 3 6 29.97 1015 7 11 0.00 0.00
11:52 am 11:52 Mostly Sunny 91 32.8 66 18.9 44 44 VRB 5 7 29.97 1015 7 11 0.00 0.00
12:52 pm 12:52 Partly Cloudy 91 32.8 64 17.8 41 41 VRB 5 7 29.96 1015 7 11 0.00 0.00
1:52 pm 13:52 Partly Cloudy 90 32.2 63 17.2 41 41 ENE 7 11 29.95 1014 7 11 0.00 0.00
2:52 pm 14:52 Partly Cloudy 94 34.4 62 16.7 35 35 VRB 5 7 29.93 1014 7 11 0.00 0.00
3:52 pm 15:52 Partly Cloudy 93 33.9 63 17.2 37 37 Calm 29.92 1013 7 11 0.00 0.00
4:52 pm 16:52 Partly Cloudy 93 33.9 62 16.7 36 36 SE 6 9 29.90 1013 7 11 0.00 0.00
5:52 pm 17:52 Partly Cloudy 91 32.8 64 17.8 41 41 SE 6 9 29.88 1012 7 11 0.00 0.00
6:52 pm 18:52 Hazy 90 32.2 64 17.8 42 42 SE 7 11 29.88 1012 6 10 0.00 0.00
7:18 pm 19:18 Partly Cloudy with Nearby Thunderstorms 89 31.7 64 17.8 43 43 SSE 8 13 29.86 1011 6 10 0.00 0.00
7:26 pm 19:26 Mostly Cloudy with Thunderstorms 89 31.7 64 17.8 43 43 SSE 7 11 29.86 1011 6 10 0.00 0.00
7:52 pm 19:52 Mostly Cloudy with Thunderstorms 87 30.6 65 18.3 48 48 NW 8 13 29.90 1012 6 10 0.00 0.00
8:44 pm 20:44 Mostly Cloudy with Haze 82 27.8 66 18.9 58 58 WNW 5 7 29.90 1013 6 10 0.00 0.00
8:52 pm 20:52 Mostly Cloudy with Haze 82 27.8 65 18.3 56 56 NW 3 6 29.92 1013 6 10 0.00 0.00
9:52 pm 21:52 Partly Cloudy 80 26.7 65 18.3 60 60 N 5 7 29.93 1014 9 14 0.00 0.00
10:52 pm 22:52 Mostly Cloudy 78 25.6 66 18.9 67 67 Calm 29.94 1014 10 16 0.00 0.00
11:52 pm 23:52 Partly Cloudy 82 27.8 65 18.3 56 56 Calm 29.94 1014 10 16 0.00 0.00

Powered by AerisWeather